[[{"header":{"parameterUnit":"m.s-1","parameterCategory":1,"la1":30.2991,"la2":30.254,"lo1":-89.0895,"lo2":-89.0444,"dy":0.0017,"dx":0.0017,"nx":28,"ny":28,"refTime":"2024-04-07T09:00:00:Z","depth":0,"parameterNumber":2,"parameterNumberName":"U-component_of_WINDS"},"data":[0,0,0,0,0,0,0,0,0,0,0,0,0,0,0,0,0,0,0,0,0,0,0,0,0,0,0,0,0,0,0,0,0,0,0,0,0,0,0,0,0,0,0,0,0,0,0,0,0,0,0,0,0,0,0,0,0,0,-4.5215,-4.5217,0,-4.5349,-4.535,-4.5352,-4.5375,-4.5374,-4.5373,-4.5372,-4.5508,-4.5512,-4.5517,0,0,0,0,0,0,0,0,0,0,0,0,0,-4.498,-4.4984,-4.5215,-4.5217,-4.5218,-4.5348,-4.535,-4.5352,-4.5376,-4.5374,-4.5373,-4.5372,-4.5506,-4.5512,-4.5517,0,0,0,0,0,0,0,0,0,0,0,0,0,-4.5094,-4.4985,-4.5215,-4.5246,-4.525,-4.5348,-4.535,-4.5353,-4.5376,-4.5374,-4.5372,-4.5371,-4.5504,-4.5511,-4.5518,-4.5594,0,0,-4.5539,-4.5542,0,0,0,0,0,0,0,0,-4.5088,-4.5103,-4.524,-4.5244,-4.5249,-4.5344,-4.5317,-4.5434,-4.5376,-4.5328,-4.5372,-4.537,-4.5454,-4.5465,-4.5494,-4.5601,-4.5607,-4.554,-4.5544,-4.5547,-4.5549,0,0,0,0,0,0,0,-4.508,-4.5097,-4.5268,-4.5242,-4.5247,-4.5253,-4.5267,-4.5339,-4.5399,-4.5332,-4.5334,-4.535,-4.5457,-4.5487,-4.5497,-4.5609,-4.554,-4.5546,-4.555,-4.5553,-4.5784,-4.5786,0,0,0,0,0,0,-4.5066,-4.5091,-4.5264,-4.5272,-4.5163,-4.5258,-4.5275,-4.5315,-4.5398,-4.5409,-4.5351,-4.535,-4.5476,-4.5489,-4.5502,-4.5596,-4.5547,-4.5554,-4.5558,-4.5782,-4.5784,-4.5786,0,0,0,0,0,0,-4.5061,-4.5082,-4.5258,-4.5182,-4.5205,-4.5264,-4.5309,-4.5318,-4.5349,-4.5412,-4.5423,-4.5371,-4.5475,-4.5492,-4.5571,-4.5601,-4.5557,-4.5563,-4.578,-4.5783,-4.5785,-4.5785,0,0,0,0,0,0,-4.5054,-4.508,-4.5109,-4.5182,-4.5209,-4.5325,-4.5311,-4.5322,-4.5361,-4.5361,-4.5434,-4.5445,-4.5475,-4.5561,-4.5578,-4.561,-4.5569,-4.5777,-4.5781,-4.5784,-4.5782,-4.5787,-4.5791,0,0,0,0,0,-4.5046,-4.5104,-4.5111,-4.5131,-4.5247,-4.5327,-4.5342,-4.5376,-4.5363,-4.5394,-4.5434,-4.5443,-4.5596,-4.5568,-4.5588,-4.5623,-4.5775,-4.578,-4.5784,-4.578,-4.5786,-4.5791,0,0,0,0,0,0,-4.5032,-4.5114,-4.5122,-4.5206,-4.5259,-4.5331,-4.5369,-4.5382,-4.5439,-4.5437,-4.5477,-4.5493,-4.557,-4.5605,-4.5573,-4.5701,-4.5684,-4.5693,-4.5675,-4.5681,-4.5685,-4.5674,-4.5574,0,0,0,0,0,-4.5039,-4.5097,-4.5165,-4.5232,-4.5259,-4.531,-4.5346,-4.5367,-4.5424,-4.5447,-4.5493,-4.5548,-4.5608,-4.5647,-4.5706,-4.5788,-4.5804,-4.5822,-4.5826,-4.583,-4.5836,-4.5881,-4.5889,-4.5801,-4.5801,-4.5801,0,0,-4.5053,-4.5105,-4.5139,-4.5231,-4.5275,-4.5333,-4.5328,-4.5391,-4.5435,-4.5456,-4.5533,-4.5569,-4.5633,-4.5713,-4.5751,-4.5744,-4.5864,-4.5835,-4.5838,-4.5842,-4.5886,-4.5894,-4.5902,-4.5804,-4.5803,-4.5803,0,0,-4.5109,-4.5155,-4.5215,-4.5259,-4.5326,-4.536,-4.5374,-4.5444,-4.5469,-4.5547,-4.5564,-4.5617,-4.572,-4.5764,-4.58,-4.5874,-4.5883,-4.5892,-4.5915,-4.5959,-4.5965,-4.5972,-4.5996,-4.6005,-4.5899,-4.5899,-4.5899,0,-4.5118,-4.5207,-4.5244,-4.5306,-4.5345,-4.5368,-4.5429,-4.547,-4.5553,-4.5579,-4.5571,-4.5701,-4.5746,-4.5836,-4.5854,-4.5883,-4.59,-4.5883,-4.5962,-4.5968,-4.5975,-4.5998,-4.6008,-4.5899,-4.5899,-4.5899,-4.5899,0,-4.5214,-4.5276,-4.5317,-4.5396,-4.544,-4.5501,-4.5547,-4.5587,-4.5606,-4.564,-4.5719,-4.5773,-4.5843,-4.5867,-4.5886,-4.596,-4.5954,-4.5954,-4.5938,-4.5983,-4.6006,-4.6015,-4.59,-4.59,-4.5899,-4.5899,0,0,-4.5263,-4.5363,-4.5377,-4.5412,-4.5488,-4.5537,-4.5599,-4.5668,-4.5701,-4.5758,-4.581,-4.5897,-4.5897,-4.5938,-4.5962,-4.6,-4.6053,-4.5995,-4.5997,-4.6002,-4.6137,-4.6135,-4.6145,-4.6061,-4.6063,-4.6064,-4.6131,0,-4.5326,-4.5437,-4.5473,-4.5565,-4.5622,-4.5646,-4.57,-4.5752,-4.5786,-4.5839,-4.5877,-4.5937,-4.5933,-4.5958,-4.5997,-4.6038,-4.608,-4.6034,-4.6108,-4.611,-4.6089,-4.6158,-4.6156,-4.6216,-4.614,-4.6142,-4.6143,0,-4.5414,-4.5472,-4.557,-4.5639,-4.5664,-4.5712,-4.5777,-4.5828,-4.5888,-4.591,-4.5956,-4.5977,-4.6042,-4.6025,-4.6114,-4.6082,-4.6115,-4.614,-4.6143,-4.6149,-4.6128,-4.6164,-4.6237,-4.6245,-4.6158,-4.6157,-4.6156,0,-4.5438,-4.5541,-4.5612,-4.5643,-4.5725,-4.5757,-4.5793,-4.5851,-4.589,-4.5948,-4.5973,-4.6038,-4.6073,-4.6122,-4.616,-4.6144,-4.6246,-4.6232,-4.6265,-4.6264,-4.6284,-4.6282,-4.6361,-4.6309,-4.6308,-4.6308,-4.6308,0,-4.5503,-4.5562,-4.5624,-4.5668,-4.5734,-4.5774,-4.5839,-4.5876,-4.5927,-4.5978,-4.6004,-4.6051,-4.6099,-4.6153,-4.6183,-4.6252,-4.6268,-4.6287,-4.6294,-4.6284,-4.6281,-4.6304,-4.63,-4.6311,-4.631,-4.631,-4.6309,0,-4.5539,-4.5584,-4.5663,-4.5734,-4.5754,-4.5799,-4.586,-4.5903,-4.5939,-4.6003,-4.6021,-4.6076,-4.6141,-4.6184,-4.6267,-4.6287,-4.6362,-4.6369,-4.6341,-4.6344,-4.6374,-4.637,-4.6469,-4.6484,-4.6423,-4.6424,-4.6424,0,-4.5577,-4.5623,-4.5699,-4.5735,-4.5771,-4.5829,-4.5869,-4.5911,-4.5951,-4.6023,-4.6057,-4.6124,-4.6179,-4.6281,-4.6328,-4.6392,-4.6399,-4.643,-4.6409,-4.6396,-4.6397,-4.6393,-4.6397,-4.6432,-4.6432,-4.6433,-4.6433,0,-4.5639,-4.5659,-4.5715,-4.578,-4.5827,-4.588,-4.5933,-4.5961,-4.6012,-4.6056,-4.6122,-4.6165,-4.625,-4.6315,-4.6383,-4.6419,-4.6434,-4.644,-4.645,-4.6439,-4.642,-4.6429,-4.6348,-4.6437,-4.6436,-4.6436,-4.6436,-4.6436,-4.5676,-4.5717,-4.5777,-4.5839,-4.5884,-4.5933,-4.5977,-4.6018,-4.6074,-4.6146,-4.6168,-4.6236,-4.6295,-4.6387,-4.6425,-4.6479,-4.6476,-4.6492,-4.6496,-4.6498,-4.6497,-4.6414,-4.6492,-4.6492,-4.6492,-4.6492,-4.6492,0,-4.5738,-4.5777,-4.5834,-4.5907,-4.5956,-4.5968,-4.6027,-4.6067,-4.6127,-4.618,-4.6234,-4.631,-4.6373,-4.6426,-4.6492,-4.6525,-4.6533,-4.654,-4.6537,-4.6545,-4.6497,-4.6481,-4.6532,-4.6532,-4.6532,-4.6532,-4.6532,-4.6532,-4.5775,-4.5845,-4.5872,-4.5964,-4.6004,-4.6071,-4.6103,-4.6149,-4.6191,-4.6275,-4.6328,-4.6362,-4.6415,-4.6485,-4.6543,-4.6557,-4.6579,-4.6584,-4.6599,-4.6553,-4.6549,-4.6544,-4.6528,-4.6589,-4.6589,-4.6643,-4.6643,-4.6643]},{"header":{"parameterUnit":"m.s-1","parameterCategory":1,"la1":30.2991,"la2":30.254,"lo1":-89.0895,"lo2":-89.0444,"dy":0.0017,"dx":0.0017,"nx":28,"ny":28,"refTime":"2024-04-07T09:00:00:Z","depth":0,"parameterNumber":3,"parameterNumberName":"V-component_of_WINDS"},"data":[0,0,0,0,0,0,0,0,0,0,0,0,0,0,0,0,0,0,0,0,0,0,0,0,0,0,0,0,0,0,0,0,0,0,0,0,0,0,0,0,0,0,0,0,0,0,0,0,0,0,0,0,0,0,0,0,0,0,5.4499,5.4499,0,5.4527,5.4528,5.4528,5.4485,5.4483,5.4482,5.4481,5.4508,5.451,5.4512,0,0,0,0,0,0,0,0,0,0,0,0,0,5.4406,5.4408,5.4499,5.4499,5.45,5.4527,5.4528,5.4528,5.4485,5.4483,5.4482,5.448,5.4507,5.4509,5.4512,0,0,0,0,0,0,0,0,0,0,0,0,0,5.4442,5.4409,5.4499,5.4482,5.448,5.4527,5.4528,5.4528,5.4486,5.4483,5.4481,5.4479,5.4506,5.4509,5.4512,5.4576,0,0,5.4522,5.4523,0,0,0,0,0,0,0,0,5.444,5.4445,5.4484,5.4483,5.4482,5.45,5.4505,5.4544,5.4486,5.4484,5.448,5.4478,5.4507,5.451,5.452,5.4578,5.4579,5.4522,5.4524,5.4525,5.4526,0,0,0,0,0,0,0,5.4437,5.4444,5.451,5.4484,5.4483,5.4472,5.4475,5.4512,5.4507,5.4484,5.4481,5.4485,5.4506,5.4517,5.452,5.4579,5.4522,5.4525,5.4527,5.4528,5.4693,5.4695,0,0,0,0,0,0,5.4437,5.4442,5.4509,5.4511,5.4455,5.4476,5.4478,5.4496,5.4507,5.4506,5.4486,5.4483,5.4513,5.4517,5.4521,5.4598,5.4525,5.4528,5.453,5.469,5.4693,5.4696,0,0,0,0,0,0,5.4436,5.4444,5.4508,5.4476,5.4483,5.448,5.45,5.4498,5.4509,5.4509,5.4508,5.4499,5.4511,5.4517,5.4563,5.4598,5.453,5.4533,5.4687,5.4691,5.4694,5.4752,0,0,0,0,0,0,5.4433,5.4443,5.4468,5.4477,5.4485,5.455,5.4502,5.45,5.4515,5.451,5.452,5.452,5.451,5.4559,5.4567,5.4601,5.4535,5.4684,5.4689,5.4693,5.4747,5.4757,5.4766,0,0,0,0,0,5.443,5.4482,5.4469,5.4478,5.4516,5.4552,5.4557,5.4545,5.4518,5.4543,5.4543,5.452,5.4593,5.4564,5.4572,5.4609,5.4682,5.4688,5.4693,5.4743,5.4755,5.4766,0,0,0,0,0,0,5.4476,5.4483,5.4469,5.4525,5.4539,5.4545,5.4576,5.4558,5.4579,5.4574,5.4557,5.456,5.461,5.4614,5.4581,5.4672,5.4633,5.464,5.4668,5.468,5.4689,5.4687,5.4538,0,0,0,0,0,5.4494,5.4524,5.4527,5.4577,5.4584,5.4579,5.4595,5.4585,5.4597,5.4603,5.4606,5.4619,5.4645,5.4662,5.4686,5.4747,5.4749,5.4776,5.4786,5.4793,5.48,5.4834,5.4846,5.4714,5.4714,5.4714,0,0,5.4529,5.4536,5.4556,5.4587,5.4596,5.4627,5.4584,5.4619,5.4642,5.4607,5.4653,5.4656,5.4669,5.4724,5.4748,5.4728,5.4837,5.4801,5.4807,5.4809,5.4841,5.4854,5.4865,5.4718,5.4717,5.4717,0,0,5.4609,5.4617,5.466,5.4671,5.4686,5.4682,5.4693,5.4702,5.4703,5.4748,5.4724,5.475,5.4796,5.4807,5.4818,5.4904,5.4884,5.4913,5.4962,5.4995,5.5006,5.5015,5.5047,5.5058,5.4919,5.4919,5.4919,0,5.4651,5.4698,5.4684,5.4722,5.4736,5.4708,5.4751,5.4762,5.4783,5.4794,5.4772,5.4829,5.4836,5.4893,5.4915,5.4925,5.4936,5.4911,5.5005,5.5015,5.5023,5.5053,5.5065,5.4923,5.4922,5.4922,5.4922,0,5.4749,5.4782,5.4814,5.4838,5.4856,5.4896,5.4889,5.4909,5.4897,5.4896,5.4943,5.495,5.4976,5.4988,5.4977,5.5045,5.5032,5.5008,5.4969,5.5039,5.5067,5.5079,5.4928,5.4926,5.4925,5.4925,0,0,5.4859,5.4876,5.4888,5.4899,5.4914,5.4939,5.4977,5.5004,5.5022,5.5037,5.507,5.511,5.5088,5.5101,5.509,5.5119,5.5189,5.5092,5.5092,5.511,5.5265,5.5284,5.5298,5.5175,5.5177,5.5179,5.5265,0,5.494,5.5009,5.4998,5.5064,5.5095,5.5069,5.5103,5.5116,5.5116,5.5142,5.5141,5.517,5.5138,5.5147,5.5174,5.5175,5.522,5.5168,5.5206,5.5207,5.5204,5.5312,5.5332,5.5412,5.5275,5.5277,5.5279,0,5.5044,5.5066,5.5135,5.5146,5.5159,5.519,5.5214,5.5238,5.5253,5.5251,5.5266,5.5251,5.529,5.525,5.5303,5.5269,5.5283,5.5286,5.5289,5.5292,5.5248,5.532,5.5437,5.545,5.5295,5.5294,5.5293,0,5.5119,5.5165,5.5213,5.5223,5.5237,5.526,5.5266,5.5278,5.5295,5.5316,5.5327,5.5351,5.5365,5.5384,5.5376,5.5347,5.5431,5.539,5.5431,5.5432,5.5451,5.545,5.5573,5.5459,5.5459,5.5458,5.5458,0,5.5211,5.5255,5.5247,5.5277,5.5325,5.5313,5.5361,5.5364,5.5376,5.5405,5.5383,5.5412,5.5399,5.5426,5.5419,5.5466,5.5472,5.5471,5.5469,5.5474,5.5474,5.5484,5.5478,5.5462,5.5461,5.546,5.546,0,5.5304,5.53,5.5351,5.536,5.5364,5.5399,5.5408,5.5435,5.5434,5.5472,5.548,5.5478,5.5509,5.5503,5.5536,5.5532,5.5591,5.5581,5.5586,5.5584,5.5626,5.5623,5.5761,5.5779,5.5652,5.5653,5.5654,0,5.5363,5.5397,5.5411,5.5429,5.5439,5.5469,5.5486,5.5476,5.5495,5.5514,5.554,5.5569,5.5592,5.5643,5.5644,5.567,5.5662,5.5709,5.5666,5.567,5.5664,5.5663,5.5666,5.5717,5.5719,5.572,5.5721,0,5.547,5.5467,5.5493,5.552,5.5542,5.5561,5.5579,5.5596,5.5586,5.5609,5.5641,5.5659,5.5695,5.5724,5.5749,5.5755,5.5737,5.5735,5.5746,5.5751,5.5753,5.5754,5.5611,5.5731,5.573,5.573,5.5729,5.5729,5.5548,5.5577,5.5592,5.5623,5.5635,5.5653,5.568,5.5682,5.5709,5.5738,5.573,5.5767,5.5781,5.5812,5.5822,5.585,5.5833,5.5848,5.5853,5.5857,5.5863,5.5748,5.5854,5.5854,5.5854,5.5853,5.5853,0,5.5655,5.5664,5.5692,5.5718,5.5743,5.5724,5.5743,5.5764,5.5797,5.5812,5.5836,5.5873,5.5902,5.5907,5.5934,5.5956,5.5949,5.5964,5.5963,5.5965,5.5876,5.5864,5.597,5.597,5.597,5.597,5.597,5.597,5.5714,5.5762,5.5761,5.5816,5.5823,5.586,5.5873,5.5889,5.5901,5.5945,5.5969,5.5972,5.5982,5.6011,5.6037,5.6037,5.6049,5.6068,5.6065,5.5982,5.5971,5.596,5.5949,5.607,5.607,5.6151,5.6152,5.6152]}]]